Find Starlink 32705

NORAD ID: 62479 Int'l Des: 2024-254 Owner: SPXS Country: US Constellation: starlink operational
LEOCIRCULAR

Current View

Loading 3D Globe...

About Starlink 32705

Starlink 32705 (NORAD 62479) is a starlink constellation satellite (v2 mini) launched Dec 31, 2024 by SPXS of US. It operates in LEO, CIRCULAR orbit with a mass of 730.00 kg.

Upcoming Passes

Passes for default location (London). Set your location on the main map for personalized predictions.

Altitude History

Loading altitude history...

Two-Line Element Set

1 62479U 24254T 26265.26138740 .00014652 00000-0 54073-3 0 9997
2 62479 43.0004 338.6555 0001194 207.6419 152.4369 15.27591154 97646
Epoch: Sep 22, 2026 • Age: 19 hours

Current Status

Altitude 486.5 km
Apogee / Perigee N/A
Velocity 7.63 km/s
Sub-Earth Point 42.83°N, 31.54°E
Launch Date Dec 31, 2024
Age 1.7 years
Type internet

Technical Details

Classification Payload
Mass 730.00 kg
Dry Mass 700.00 kg
Length 0.30 m
Span 29.00 m
Shape ? Box + pan
Manufacturer SPXS
Bus Type Starlink V2M
Phase Status In Orbit
Owner/State SPXS/US

Most Searched